SAE45 MDPP-KMHT

Flight info

Callsign SAE45
Flight time N/A
Altitude 31000
Route LERED3C LERED DCT LFANO/M085F310 DCT LSIER/M085F320 L453 SAUCR/M085F310 Y485 CHUBY/M085F320 Y485 HOBOH/M085F310 Y485 SILLY/N0504F310 Y485 STINK DCT BAF DCT MUCOW ROZZE2
Aircraft B74F/H-SDE3FGHIM1M2RWXY/LB1

Departure

Time N/A
Airport Gregorio Luperon International Airport (MDPP)

Arrival

Time 2026-04-20 02:28
Airport Manchester-Boston Regional Airport (KMHT)
Time Latitude Longitude Altitude Speed Heading
2026-04-19 23:38 22.05995 -70.62322 27970 ft 384 kts 353°
2026-04-19 23:38 22.08658 -70.62599 28146 ft 384 kts 353°
2026-04-19 23:38 22.11320 -70.62878 28313 ft 384 kts 353°
2026-04-19 23:39 22.13969 -70.63158 28460 ft 385 kts 353°
2026-04-19 23:39 22.16651 -70.63437 28602 ft 386 kts 353°
2026-04-19 23:39 22.19354 -70.63721 28751 ft 388 kts 353°
2026-04-19 23:39 22.22047 -70.64004 28895 ft 389 kts 353°
2026-04-19 23:40 22.24723 -70.64292 29048 ft 390 kts 353°
2026-04-19 23:40 22.27439 -70.64568 29215 ft 391 kts 353°
2026-04-19 23:40 22.30174 -70.64864 29378 ft 391 kts 353°
2026-04-19 23:40 22.32892 -70.65147 29548 ft 392 kts 353°
2026-04-19 23:41 22.35614 -70.65434 29720 ft 392 kts 353°
2026-04-19 23:41 22.38375 -70.65723 29896 ft 393 kts 353°
2026-04-19 23:41 22.41086 -70.66002 30065 ft 393 kts 353°
2026-04-19 23:41 22.43839 -70.66290 30237 ft 393 kts 353°
2026-04-19 23:42 22.46560 -70.66587 30375 ft 394 kts 353°
2026-04-19 23:42 22.49335 -70.66876 30488 ft 396 kts 353°
2026-04-19 23:42 22.52072 -70.67166 30607 ft 397 kts 353°
2026-04-19 23:42 22.54839 -70.67461 30785 ft 397 kts 352°
2026-04-19 23:43 22.57583 -70.67742 30942 ft 397 kts 353°
2026-04-19 23:43 22.60355 -70.68040 31035 ft 399 kts 353°
2026-04-19 23:43 22.65936 -70.68630 31100 ft 407 kts 352°
2026-04-19 23:44 22.71627 -70.69232 31105 ft 415 kts 352°
2026-04-19 23:44 22.77458 -70.69852 31093 ft 424 kts 353°
2026-04-19 23:45 22.83427 -70.70481 31089 ft 434 kts 352°
2026-04-19 23:45 22.89522 -70.71127 31082 ft 443 kts 353°
2026-04-19 23:46 22.95697 -70.71784 31083 ft 451 kts 352°
2026-04-19 23:46 23.02007 -70.72459 31076 ft 458 kts 352°
2026-04-19 23:47 23.08382 -70.73141 31058 ft 461 kts 353°
2026-04-19 23:47 23.14773 -70.73826 31057 ft 461 kts 352°
2026-04-19 23:48 23.21148 -70.74496 31047 ft 458 kts 352°
2026-04-19 23:48 23.27475 -70.75180 31043 ft 456 kts 352°
2026-04-19 23:49 23.33817 -70.75858 31051 ft 456 kts 352°
2026-04-19 23:49 23.40168 -70.76532 31049 ft 457 kts 352°
2026-04-19 23:50 23.46529 -70.77213 31055 ft 458 kts 352°
2026-04-19 23:50 23.52858 -70.77898 31052 ft 458 kts 352°
2026-04-19 23:51 23.59221 -70.78582 31048 ft 457 kts 352°
2026-04-19 23:51 23.65568 -70.79261 31050 ft 457 kts 352°
2026-04-19 23:52 23.71892 -70.79939 31050 ft 457 kts 352°
2026-04-19 23:52 23.78258 -70.80626 31053 ft 457 kts 352°
2026-04-19 23:53 23.84560 -70.81304 31057 ft 457 kts 352°
2026-04-19 23:53 23.90881 -70.81982 31052 ft 456 kts 352°
2026-04-19 23:54 23.97204 -70.82664 31049 ft 456 kts 352°
2026-04-19 23:54 24.03546 -70.83356 31054 ft 457 kts 352°
2026-04-19 23:55 24.09897 -70.84039 31058 ft 458 kts 352°
2026-04-19 23:55 24.16254 -70.84729 31060 ft 459 kts 352°
2026-04-19 23:56 24.22632 -70.85417 31053 ft 459 kts 352°
2026-04-19 23:56 24.29026 -70.86111 31055 ft 459 kts 352°
2026-04-19 23:57 24.35392 -70.86798 31049 ft 459 kts 352°
2026-04-19 23:57 24.41755 -70.87493 31045 ft 458 kts 352°
2026-04-19 23:58 24.48092 -70.88187 31050 ft 458 kts 352°
2026-04-19 23:58 24.54445 -70.88875 31050 ft 458 kts 352°
2026-04-19 23:59 24.60827 -70.89574 31053 ft 458 kts 352°
2026-04-19 23:59 24.67183 -70.90271 31053 ft 459 kts 352°
2026-04-20 00:00 24.73572 -70.90966 31054 ft 461 kts 352°
2026-04-20 00:00 24.79964 -70.91660 31051 ft 462 kts 352°
2026-04-20 00:01 24.86346 -70.92362 31057 ft 461 kts 351°
2026-04-20 00:02 24.95932 -70.93414 31050 ft 460 kts 351°
2026-04-20 00:02 25.02332 -70.94113 31049 ft 460 kts 351°
2026-04-20 00:03 25.08728 -70.94815 31056 ft 461 kts 351°
2026-04-20 00:03 25.15094 -70.95515 31077 ft 463 kts 351°
2026-04-20 00:04 25.21538 -70.96226 31074 ft 464 kts 351°
2026-04-20 00:04 25.27978 -70.96944 31069 ft 463 kts 351°
2026-04-20 00:05 25.34410 -70.97649 31065 ft 461 kts 351°
2026-04-20 00:05 25.40808 -70.98357 31068 ft 461 kts 351°
2026-04-20 00:06 25.47186 -70.99064 31072 ft 461 kts 351°
2026-04-20 00:06 25.53613 -70.99773 31079 ft 463 kts 351°
2026-04-20 00:07 25.60042 -71.00492 31072 ft 463 kts 352°
2026-04-20 00:07 25.66434 -71.01199 31064 ft 463 kts 351°
2026-04-20 00:08 25.72834 -71.01904 31065 ft 462 kts 351°
2026-04-20 00:08 25.79232 -71.02625 31059 ft 462 kts 351°
2026-04-20 00:09 25.85653 -71.03336 31065 ft 463 kts 351°
2026-04-20 00:09 25.92137 -71.04047 31070 ft 465 kts 351°
2026-04-20 00:10 25.98588 -71.04780 31075 ft 465 kts 351°
2026-04-20 00:10 26.05016 -71.05496 31071 ft 464 kts 351°
2026-04-20 00:11 26.11435 -71.06213 31067 ft 463 kts 351°
2026-04-20 00:11 26.17871 -71.06942 31077 ft 464 kts 352°
2026-04-20 00:12 26.24313 -71.07653 31077 ft 466 kts 351°
2026-04-20 00:12 26.30757 -71.08379 31072 ft 466 kts 351°
2026-04-20 00:13 26.37230 -71.09102 31065 ft 464 kts 351°
2026-04-20 00:13 26.43617 -71.09854 31062 ft 463 kts 350°
2026-04-20 00:14 26.50070 -71.10707 31077 ft 463 kts 350°
2026-04-20 00:14 26.56476 -71.11560 31074 ft 465 kts 350°
2026-04-20 00:15 26.62919 -71.12420 31076 ft 466 kts 350°
2026-04-20 00:15 26.69396 -71.13301 31065 ft 464 kts 350°
2026-04-20 00:16 26.75778 -71.14166 31063 ft 463 kts 350°
2026-04-20 00:16 26.82194 -71.15026 31071 ft 464 kts 350°
2026-04-20 00:17 26.88642 -71.15902 31071 ft 465 kts 350°
2026-04-20 00:17 26.95091 -71.16761 31073 ft 466 kts 350°
2026-04-20 00:18 27.01527 -71.17643 31068 ft 467 kts 350°
2026-04-20 00:18 27.07958 -71.18514 31062 ft 467 kts 350°
2026-04-20 00:19 27.14421 -71.19384 31070 ft 466 kts 350°
2026-04-20 00:19 27.20871 -71.20268 31069 ft 465 kts 350°
2026-04-20 00:20 27.27279 -71.21138 31065 ft 465 kts 350°
2026-04-20 00:20 27.33734 -71.22021 31074 ft 466 kts 350°
2026-04-20 00:21 27.40188 -71.22892 31071 ft 467 kts 349°
2026-04-20 00:21 27.46664 -71.23784 31063 ft 467 kts 349°
2026-04-20 00:22 27.53088 -71.24661 31061 ft 467 kts 349°
2026-04-20 00:22 27.59559 -71.25546 31067 ft 467 kts 349°
2026-04-20 00:23 27.66051 -71.26437 31069 ft 468 kts 349°
2026-04-20 00:23 27.72510 -71.27325 31073 ft 469 kts 349°
2026-04-20 00:24 27.79005 -71.28218 31072 ft 468 kts 349°
2026-04-20 00:24 27.85454 -71.29107 31059 ft 467 kts 349°
2026-04-20 00:25 27.91891 -71.29998 31065 ft 467 kts 349°
2026-04-20 00:25 27.98371 -71.30875 31069 ft 468 kts 349°
2026-04-20 00:26 28.04866 -71.31777 31073 ft 469 kts 349°
2026-04-20 00:26 28.11330 -71.32672 31079 ft 469 kts 349°
2026-04-20 00:27 28.17800 -71.33567 31071 ft 468 kts 349°
2026-04-20 00:27 28.24266 -71.34465 31068 ft 468 kts 349°
2026-04-20 00:28 28.30755 -71.35364 31070 ft 468 kts 349°
2026-04-20 00:28 28.37214 -71.36269 31069 ft 468 kts 349°
2026-04-20 00:29 28.43700 -71.37163 31069 ft 468 kts 349°
2026-04-20 00:29 28.50170 -71.38066 31070 ft 469 kts 349°
2026-04-20 00:30 28.56644 -71.38969 31070 ft 469 kts 349°
2026-04-20 00:30 28.63159 -71.39875 31059 ft 469 kts 349°
2026-04-20 00:31 28.69610 -71.40780 31068 ft 468 kts 348°
2026-04-20 00:31 28.76128 -71.41691 31062 ft 469 kts 349°
2026-04-20 00:32 28.82602 -71.42601 31071 ft 471 kts 349°
2026-04-20 00:32 28.89134 -71.43510 31072 ft 471 kts 349°
2026-04-20 00:33 28.95604 -71.44430 31063 ft 470 kts 349°
2026-04-20 00:33 29.02088 -71.45335 31056 ft 468 kts 348°
2026-04-20 00:34 29.08575 -71.46246 31059 ft 469 kts 349°
2026-04-20 00:34 29.15051 -71.47163 31066 ft 471 kts 349°
2026-04-20 00:35 29.21595 -71.48083 31073 ft 472 kts 349°
2026-04-20 00:35 29.28091 -71.49000 31062 ft 471 kts 348°
2026-04-20 00:36 29.34601 -71.49927 31058 ft 470 kts 349°
2026-04-20 00:36 29.41101 -71.50843 31058 ft 469 kts 348°
2026-04-20 00:37 29.47606 -71.51764 31056 ft 470 kts 348°
2026-04-20 00:37 29.54128 -71.52699 31061 ft 472 kts 348°
2026-04-20 00:38 29.60653 -71.53629 31068 ft 472 kts 348°
2026-04-20 00:38 29.67222 -71.54557 31054 ft 471 kts 348°
2026-04-20 00:39 29.73723 -71.55491 31047 ft 471 kts 348°
2026-04-20 00:39 29.80232 -71.56414 31052 ft 472 kts 348°
2026-04-20 00:40 29.86715 -71.57346 31048 ft 472 kts 348°
2026-04-20 00:40 29.93266 -71.58282 31052 ft 473 kts 348°
2026-04-20 00:41 29.99784 -71.59220 31057 ft 473 kts 348°
2026-04-20 00:41 30.06315 -71.60156 31050 ft 472 kts 348°
2026-04-20 00:42 30.12837 -71.61096 31047 ft 471 kts 348°
2026-04-20 00:42 30.19364 -71.62038 31047 ft 473 kts 348°
2026-04-20 00:43 30.25899 -71.62983 31050 ft 474 kts 348°
2026-04-20 00:43 30.32438 -71.63919 31045 ft 474 kts 348°
2026-04-20 00:44 30.39004 -71.64874 31037 ft 474 kts 348°
2026-04-20 00:44 30.45589 -71.65830 31053 ft 474 kts 347°
2026-04-20 00:45 30.52145 -71.66775 31039 ft 474 kts 347°
2026-04-20 00:45 30.58663 -71.67728 31040 ft 474 kts 347°
2026-04-20 00:46 30.65237 -71.68678 31034 ft 475 kts 347°
2026-04-20 00:46 30.71811 -71.69637 31036 ft 475 kts 347°
2026-04-20 00:47 30.78381 -71.70595 31035 ft 475 kts 347°
2026-04-20 00:47 30.84981 -71.71559 31035 ft 475 kts 347°
2026-04-20 00:48 30.91538 -71.72523 31034 ft 475 kts 347°
2026-04-20 00:48 30.98111 -71.73485 31040 ft 476 kts 347°
2026-04-20 00:49 31.04660 -71.74450 31031 ft 477 kts 347°
2026-04-20 00:49 31.11258 -71.75415 31037 ft 478 kts 347°
2026-04-20 00:50 31.17875 -71.76392 31037 ft 479 kts 347°
2026-04-20 00:50 31.24518 -71.77368 31030 ft 480 kts 347°
2026-04-20 00:51 31.31129 -71.78346 31031 ft 478 kts 347°
2026-04-20 00:51 31.37742 -71.79319 31032 ft 478 kts 347°
2026-04-20 00:52 31.44341 -71.80297 31033 ft 480 kts 347°
2026-04-20 00:52 31.51007 -71.81287 31037 ft 480 kts 347°
2026-04-20 00:53 31.57614 -71.82262 31033 ft 480 kts 347°
2026-04-20 00:53 31.64273 -71.83255 31032 ft 480 kts 347°
2026-04-20 00:54 31.70930 -71.84242 31036 ft 481 kts 347°
2026-04-20 00:54 31.77581 -71.85245 31035 ft 482 kts 347°
2026-04-20 00:55 31.84264 -71.86240 31033 ft 483 kts 347°
2026-04-20 00:55 31.90937 -71.87238 31035 ft 483 kts 347°
2026-04-20 00:56 31.97648 -71.88240 31035 ft 483 kts 347°
2026-04-20 00:56 32.04321 -71.89235 31033 ft 483 kts 347°
2026-04-20 00:57 32.10959 -71.90234 31027 ft 482 kts 347°
2026-04-20 00:57 32.17643 -71.91241 31029 ft 482 kts 347°
2026-04-20 00:58 32.24285 -71.92238 31031 ft 483 kts 347°
2026-04-20 00:58 32.30959 -71.93242 31037 ft 484 kts 347°
2026-04-20 00:59 32.37662 -71.94258 31029 ft 486 kts 347°
2026-04-20 00:59 32.44374 -71.95274 31025 ft 485 kts 347°
2026-04-20 01:00 32.51092 -71.96292 31018 ft 483 kts 348°
2026-04-20 01:00 32.57750 -71.97302 31017 ft 483 kts 348°
2026-04-20 01:01 32.64408 -71.98309 31023 ft 485 kts 347°
2026-04-20 01:01 32.71168 -71.99340 31025 ft 488 kts 348°
2026-04-20 01:02 32.77899 -72.00364 31021 ft 488 kts 348°
2026-04-20 01:02 32.84602 -72.01391 31018 ft 485 kts 348°
2026-04-20 01:03 32.91326 -72.02413 31018 ft 485 kts 348°
2026-04-20 01:03 32.98006 -72.03437 31021 ft 485 kts 348°
2026-04-20 01:04 33.04659 -72.04617 31003 ft 482 kts 342°
2026-04-20 01:04 33.11238 -72.06438 31019 ft 483 kts 342°
2026-04-20 01:05 33.17808 -72.08215 31013 ft 484 kts 342°
2026-04-20 01:05 33.24378 -72.09991 31018 ft 485 kts 342°
2026-04-20 01:06 33.30950 -72.11772 31017 ft 484 kts 342°
2026-04-20 01:06 33.37552 -72.13565 31018 ft 483 kts 342°
2026-04-20 01:07 33.44067 -72.15337 31019 ft 483 kts 342°
2026-04-20 01:07 33.50682 -72.17143 31025 ft 485 kts 342°
2026-04-20 01:08 33.57257 -72.18935 31021 ft 486 kts 342°
2026-04-20 01:08 33.63855 -72.20737 31027 ft 487 kts 342°
2026-04-20 01:09 33.70466 -72.22547 31018 ft 486 kts 342°
2026-04-20 01:09 33.77053 -72.24352 31028 ft 485 kts 342°
2026-04-20 01:10 33.83663 -72.26169 31021 ft 485 kts 342°
2026-04-20 01:10 33.93534 -72.28879 31014 ft 487 kts 342°
2026-04-20 01:11 34.00183 -72.30472 30995 ft 494 kts 351°
2026-04-20 01:11 34.07079 -72.31139 31029 ft 495 kts 350°
2026-04-20 01:12 34.13960 -72.31873 31015 ft 494 kts 350°
2026-04-20 01:12 34.20793 -72.32607 31017 ft 492 kts 350°
2026-04-20 01:13 34.27611 -72.33341 31022 ft 490 kts 350°
2026-04-20 01:13 34.34393 -72.34071 31023 ft 490 kts 350°
2026-04-20 01:14 34.41213 -72.34808 31038 ft 494 kts 351°
2026-04-20 01:14 34.48041 -72.35555 31037 ft 496 kts 350°
2026-04-20 01:15 34.54900 -72.36292 31035 ft 494 kts 350°
2026-04-20 01:15 34.61770 -72.37045 31031 ft 493 kts 350°
2026-04-20 01:16 34.68603 -72.37788 31045 ft 494 kts 350°
2026-04-20 01:16 34.75532 -72.37825 31021 ft 504 kts
2026-04-20 01:17 34.82488 -72.36601 31056 ft 503 kts
2026-04-20 01:17 34.89409 -72.35470 31051 ft 502 kts
2026-04-20 01:18 34.96336 -72.34310 31044 ft 500 kts
2026-04-20 01:18 35.03190 -72.34123 31050 ft 494 kts 355°
2026-04-20 01:19 35.10128 -72.34038 31070 ft 497 kts 355°
2026-04-20 01:19 35.17051 -72.33946 31066 ft 500 kts 355°
2026-04-20 01:20 35.24054 -72.33858 31073 ft 502 kts 356°
2026-04-20 01:20 35.31018 -72.33759 31066 ft 502 kts 356°
2026-04-20 01:21 35.37999 -72.33658 31068 ft 501 kts 356°
2026-04-20 01:21 35.44999 -72.33566 31068 ft 501 kts 355°
2026-04-20 01:22 35.51968 -72.33471 31074 ft 502 kts 355°
2026-04-20 01:22 35.58953 -72.33365 31071 ft 503 kts 355°
2026-04-20 01:23 35.65979 -72.33270 31074 ft 504 kts 355°
2026-04-20 01:23 35.72973 -72.33166 31072 ft 504 kts 355°
2026-04-20 01:24 35.79989 -72.33070 31081 ft 504 kts 355°
2026-04-20 01:24 35.87043 -72.32977 31080 ft 507 kts 355°
2026-04-20 01:25 35.94123 -72.32891 31091 ft 510 kts 355°
2026-04-20 01:25 36.01203 -72.32770 31088 ft 509 kts 355°
2026-04-20 01:26 36.08097 -72.33839 31063 ft 492 kts 337°
2026-04-20 01:26 36.14717 -72.36114 31093 ft 495 kts 339°
2026-04-20 01:27 36.21385 -72.38316 31104 ft 498 kts 339°
2026-04-20 01:27 36.28106 -72.40498 31092 ft 500 kts 339°
2026-04-20 01:28 36.34879 -72.42700 31095 ft 502 kts 339°
2026-04-20 01:28 36.41608 -72.44895 31097 ft 501 kts 339°
2026-04-20 01:29 36.48340 -72.47086 31094 ft 500 kts 338°
2026-04-20 01:29 36.55121 -72.49300 31104 ft 501 kts 338°
2026-04-20 01:30 36.61830 -72.51514 31107 ft 502 kts 339°
2026-04-20 01:30 36.68595 -72.53700 31099 ft 502 kts 339°
2026-04-20 01:31 36.72111 -72.54394 31071 ft 513 kts 351°
2026-04-20 01:31 36.75686 -72.54435 31110 ft 516 kts 355°
2026-04-20 01:31 36.82847 -72.54561 31109 ft 514 kts 353°
2026-04-20 01:32 36.89978 -72.54716 31114 ft 513 kts 353°
2026-04-20 01:32 36.97141 -72.54875 31094 ft 514 kts 353°
2026-04-20 01:33 37.04299 -72.55042 31103 ft 516 kts 353°
2026-04-20 01:33 37.11515 -72.55209 31107 ft 518 kts 353°
2026-04-20 01:34 37.18747 -72.55353 31108 ft 519 kts 354°
2026-04-20 01:34 37.25965 -72.54302 31079 ft 533 kts 14°
2026-04-20 01:35 37.32932 -72.51024 31121 ft 533 kts 16°
2026-04-20 01:35 37.39933 -72.47935 31117 ft 536 kts 16°
2026-04-20 01:36 37.47030 -72.44804 31122 ft 538 kts 15°
2026-04-20 01:36 37.54088 -72.41663 31114 ft 539 kts 17°
2026-04-20 01:37 37.61157 -72.38415 31101 ft 539 kts 15°
2026-04-20 01:37 37.68272 -72.35345 31121 ft 539 kts 15°
2026-04-20 01:38 37.75328 -72.32237 31112 ft 538 kts 15°
2026-04-20 01:38 37.82428 -72.29360 31079 ft 532 kts
2026-04-20 01:39 37.86080 -72.28911 31094 ft 521 kts 352°
2026-04-20 01:39 37.89624 -72.29275 31128 ft 512 kts 345°
2026-04-20 01:39 37.96803 -72.30134 31149 ft 520 kts 348°
2026-04-20 01:40 38.04030 -72.30868 31132 ft 523 kts 348°
2026-04-20 01:40 38.11330 -72.31554 31112 ft 524 kts 348°
2026-04-20 01:41 38.18566 -72.32247 31097 ft 523 kts 348°
2026-04-20 01:41 38.25840 -72.32944 31097 ft 523 kts 347°
2026-04-20 01:42 38.33041 -72.33622 31106 ft 523 kts 348°
2026-04-20 01:42 38.40363 -72.34324 31114 ft 528 kts 347°
2026-04-20 01:43 38.47721 -72.35020 31117 ft 529 kts 347°
2026-04-20 01:43 38.55043 -72.35723 31120 ft 531 kts 348°
2026-04-20 01:44 38.62428 -72.36429 31114 ft 530 kts 348°
2026-04-20 01:44 38.69777 -72.37133 31103 ft 530 kts 348°
2026-04-20 01:45 38.77103 -72.37841 31089 ft 531 kts 348°
2026-04-20 01:45 38.84474 -72.38528 31109 ft 532 kts 347°
2026-04-20 01:46 38.91915 -72.39262 31096 ft 536 kts 347°
2026-04-20 01:46 38.99376 -72.39997 31114 ft 538 kts 347°
2026-04-20 01:47 39.06863 -72.40713 31101 ft 540 kts 347°
2026-04-20 01:47 39.14389 -72.41434 31078 ft 540 kts 347°
2026-04-20 01:48 39.21860 -72.42148 31095 ft 537 kts 346°
2026-04-20 01:48 39.29304 -72.42896 31107 ft 535 kts 347°
2026-04-20 01:49 39.36752 -72.43637 31102 ft 538 kts 347°
2026-04-20 01:49 39.44275 -72.44347 31128 ft 543 kts 347°
2026-04-20 01:50 39.51835 -72.45100 31119 ft 544 kts 347°
2026-04-20 01:50 39.59356 -72.45834 31091 ft 543 kts 346°
2026-04-20 01:51 39.66913 -72.46581 31075 ft 542 kts 346°
2026-04-20 01:51 39.74425 -72.47304 31096 ft 542 kts 346°
2026-04-20 01:52 39.81977 -72.48053 31086 ft 541 kts 345°
2026-04-20 01:52 39.89475 -72.48790 31088 ft 541 kts 345°
2026-04-20 01:53 39.97031 -72.49559 31095 ft 543 kts 345°
2026-04-20 01:53 40.04555 -72.50306 31079 ft 544 kts 345°
2026-04-20 01:54 40.12160 -72.51041 31075 ft 547 kts 345°
2026-04-20 01:54 40.19733 -72.51809 31064 ft 545 kts 346°
2026-04-20 01:55 40.27317 -72.52559 31076 ft 544 kts 346°
2026-04-20 01:55 40.34835 -72.53323 31088 ft 545 kts 345°
2026-04-20 01:56 40.42388 -72.54101 31079 ft 544 kts 345°
2026-04-20 01:56 40.49992 -72.54817 31107 ft 545 kts 345°
2026-04-20 01:57 40.57562 -72.55611 31074 ft 547 kts 345°
2026-04-20 01:57 40.65148 -72.56389 31104 ft 550 kts 346°
2026-04-20 01:58 40.72783 -72.57134 31090 ft 549 kts 345°
2026-04-20 01:58 40.80411 -72.57928 31072 ft 548 kts 344°
2026-04-20 01:59 40.88023 -72.58710 31083 ft 551 kts 346°
2026-04-20 01:59 40.95701 -72.59473 31107 ft 552 kts 346°
2026-04-20 02:00 41.03324 -72.60283 31079 ft 550 kts 344°
2026-04-20 02:00 41.10953 -72.61044 31060 ft 546 kts 343°
2026-04-20 02:01 41.18553 -72.61830 31043 ft 547 kts 346°
2026-04-20 02:01 41.26110 -72.62605 31073 ft 548 kts 345°
2026-04-20 02:02 41.33758 -72.63407 31077 ft 548 kts 345°
2026-04-20 02:02 41.41377 -72.64175 31061 ft 551 kts 345°
2026-04-20 02:03 41.49037 -72.64983 31057 ft 552 kts 345°
2026-04-20 02:03 41.56705 -72.65745 31090 ft 554 kts 345°
2026-04-20 02:04 41.64407 -72.66540 31061 ft 549 kts 344°
2026-04-20 02:04 41.71967 -72.67354 31016 ft 545 kts 345°
2026-04-20 02:05 41.79542 -72.68107 31037 ft 544 kts 344°
2026-04-20 02:05 41.87103 -72.68939 31026 ft 544 kts 344°
2026-04-20 02:06 41.94763 -72.69723 31049 ft 551 kts 344°
2026-04-20 02:06 42.02441 -72.70557 31062 ft 551 kts 343°
2026-04-20 02:07 42.10081 -72.71424 31019 ft 550 kts 345°
2026-04-20 02:07 42.17552 -72.72680 30949 ft 526 kts 331°
2026-04-20 02:08 42.20900 -72.74430 30773 ft 505 kts 318°
2026-04-20 02:08 42.23876 -72.76856 30519 ft 492 kts 313°
2026-04-20 02:08 42.26776 -72.79238 30222 ft 487 kts 316°
2026-04-20 02:08 42.29704 -72.81450 29792 ft 473 kts 316°
2026-04-20 02:09 42.32513 -72.83581 29203 ft 461 kts 315°
2026-04-20 02:09 42.35287 -72.85670 28513 ft 455 kts 315°
2026-04-20 02:09 42.38054 -72.87755 27825 ft 446 kts 316°
2026-04-20 02:09 42.40751 -72.89786 27121 ft 438 kts 315°
2026-04-20 02:10 42.43484 -72.91682 26390 ft 446 kts 324°
2026-04-20 02:10 42.46486 -72.92844 25666 ft 464 kts 339°
2026-04-20 02:10 42.49793 -72.93098 24936 ft 477 kts 354°
2026-04-20 02:10 42.53073 -72.92385 24264 ft 486 kts
2026-04-20 02:11 42.56239 -72.90713 23590 ft 489 kts 25°
2026-04-20 02:11 42.59039 -72.88210 22917 ft 487 kts 40°
2026-04-20 02:11 42.61392 -72.84959 22253 ft 477 kts 56°
2026-04-20 02:11 42.63131 -72.81189 21557 ft 463 kts 71°
2026-04-20 02:12 42.64172 -72.77169 20865 ft 443 kts 86°
2026-04-20 02:12 42.64501 -72.73129 20129 ft 420 kts 102°
2026-04-20 02:12 42.64144 -72.69373 19410 ft 395 kts 117°
2026-04-20 02:12 42.63570 -72.65727 18679 ft 402 kts 107°
2026-04-20 02:13 42.63617 -72.61878 18006 ft 414 kts 89°
2026-04-20 02:13 42.64197 -72.58031 17319 ft 415 kts 83°
2026-04-20 02:13 42.64841 -72.54223 16664 ft 410 kts 82°
2026-04-20 02:13 42.65447 -72.50472 15976 ft 406 kts 79°
2026-04-20 02:14 42.66151 -72.46773 15291 ft 402 kts 76°
2026-04-20 02:14 42.66987 -72.43188 14646 ft 395 kts 65°
2026-04-20 02:14 42.68205 -72.39919 14030 ft 388 kts 59°
2026-04-20 02:14 42.69442 -72.36696 13392 ft 382 kts 61°
2026-04-20 02:15 42.70607 -72.33497 12800 ft 374 kts 61°
2026-04-20 02:15 42.71752 -72.30364 12212 ft 366 kts 60°
2026-04-20 02:15 42.72852 -72.27322 11682 ft 356 kts 60°
2026-04-20 02:15 42.73951 -72.24317 11178 ft 345 kts 59°
2026-04-20 02:16 42.74990 -72.21436 10756 ft 334 kts 59°
2026-04-20 02:16 42.75993 -72.18662 10424 ft 319 kts 59°
2026-04-20 02:16 42.76952 -72.15999 10112 ft 305 kts 59°
2026-04-20 02:16 42.77853 -72.13446 9857 ft 290 kts 59°
2026-04-20 02:17 42.78745 -72.10991 9552 ft 293 kts 57°
2026-04-20 02:17 42.79661 -72.08498 9299 ft 296 kts 57°
2026-04-20 02:17 42.80571 -72.05962 9024 ft 297 kts 58°
2026-04-20 02:17 42.81470 -72.03441 8803 ft 287 kts 58°
2026-04-20 02:18 42.82320 -72.01030 8604 ft 280 kts 58°
2026-04-20 02:18 42.83006 -71.98483 8314 ft 295 kts 75°
2026-04-20 02:18 42.83151 -71.95631 8041 ft 300 kts 87°
2026-04-20 02:18 42.83179 -71.92836 7838 ft 290 kts 77°
2026-04-20 02:19 42.83711 -71.90272 7527 ft 275 kts 55°
2026-04-20 02:19 42.84791 -71.88209 7270 ft 264 kts 40°
2026-04-20 02:19 42.86015 -71.86320 7077 ft 268 kts 43°
2026-04-20 02:19 42.87185 -71.84317 6889 ft 272 kts 46°
2026-04-20 02:20 42.88322 -71.82255 6679 ft 271 kts 46°
2026-04-20 02:20 42.89457 -71.80190 6426 ft 265 kts 46°
2026-04-20 02:20 42.90558 -71.78203 6123 ft 257 kts 46°
2026-04-20 02:20 42.91604 -71.76280 5837 ft 249 kts 46°
2026-04-20 02:21 42.93499 -71.72804 5377 ft 208 kts 44°
2026-04-20 02:21 42.94314 -71.71282 5216 ft 186 kts 44°
2026-04-20 02:21 42.95059 -71.69916 4933 ft 177 kts 41°
2026-04-20 02:22 42.95800 -71.68567 4892 ft 179 kts 43°
2026-04-20 02:22 42.96545 -71.67174 4974 ft 186 kts 43°
2026-04-20 02:22 42.97309 -71.65687 4853 ft 198 kts 44°
2026-04-20 02:22 42.98133 -71.64104 4589 ft 203 kts 45°
2026-04-20 02:23 42.98934 -71.62553 4403 ft 196 kts 45°
2026-04-20 02:23 42.99720 -71.61014 4009 ft 199 kts 45°
2026-04-20 02:23 43.00512 -71.59480 3632 ft 194 kts 45°
2026-04-20 02:23 43.01257 -71.58010 3269 ft 183 kts 45°
2026-04-20 02:24 43.01960 -71.56630 2894 ft 174 kts 44°
2026-04-20 02:24 43.02649 -71.55300 2535 ft 165 kts 46°
2026-04-20 02:24 43.03304 -71.54033 2412 ft 163 kts 45°
2026-04-20 02:24 43.03965 -71.52715 2493 ft 169 kts 52°
2026-04-20 02:25 43.04308 -71.51044 2313 ft 192 kts 85°
2026-04-20 02:25 43.04004 -71.49308 2166 ft 191 kts 118°
2026-04-20 02:25 43.03223 -71.48094 2026 ft 184 kts 149°
2026-04-20 02:25 43.02080 -71.47464 1898 ft 176 kts 175°
2026-04-20 02:26 43.00846 -71.47241 1692 ft 178 kts 176°
2026-04-20 02:26 42.99575 -71.46847 1523 ft 196 kts 167°
2026-04-20 02:26 42.98257 -71.46242 1383 ft 206 kts 163°
2026-04-20 02:26 42.96878 -71.45525 997 ft 213 kts 160°
2026-04-20 02:27 42.95568 -71.44771 674 ft 193 kts 158°
2026-04-20 02:27 42.94384 -71.44089 329 ft 181 kts 156°
2026-04-20 02:27 42.93289 -71.43436 242 ft 161 kts 155°
2026-04-20 02:27 42.92379 -71.42897 232 ft 108 kts 156°
2026-04-20 02:28 42.91988 -71.42664 250 ft 23 kts 167°
2026-04-20 02:28 42.91905 -71.42760 253 ft 14 kts 242°
2026-04-20 02:28 42.91896 -71.42876 248 ft 13 kts 315°
2026-04-20 02:28 42.91994 -71.42916 239 ft 15 kts 355°
2026-04-20 02:29 42.92061 -71.42921 236 ft 0 kts 357°